EN

Hourly Weather Pabna

Today, 28 November, Saturday

Time Temperature Precipitation Wind Pressure Humidity
00:00 +22°C° 0 mm 3 mps 760 mmHg 61%
01:00 +21°C° 0 mm 3 mps 760 mmHg 60%
02:00 +21°C° 0 mm 3 mps 759 mmHg 59%
03:00 +20°C° 0 mm 3 mps 759 mmHg 59%
04:00 +20°C° 0 mm 3 mps 759 mmHg 61%
05:00 +20°C° 0 mm 3 mps 759 mmHg 64%
06:00 +19°C° 0 mm 3 mps 759 mmHg 66%
07:00 +21°C° 0 mm 3 mps 760 mmHg 62%
08:00 +23°C° 0 mm 4 mps 761 mmHg 58%
09:00 +25°C° 0 mm 4 mps 761 mmHg 53%
10:00 +27°C° 0 mm 4 mps 761 mmHg 48%
11:00 +28°C° 0 mm 4 mps 760 mmHg 43%
12:00 +29°C° 0 mm 4 mps 760 mmHg 38%
13:00 +30°C° 0 mm 4 mps 759 mmHg 36%
14:00 +32°C° 0 mm 4 mps 758 mmHg 34%
15:00 +32°C° 0 mm 4 mps 757 mmHg 32%
16:00 +29°C° 0 mm 3 mps 758 mmHg 36%
17:00 +28°C° 0 mm 3 mps 758 mmHg 41%
18:00 +26°C° 0 mm 3 mps 758 mmHg 45%
19:00 +25°C° 0 mm 3 mps 758 mmHg 47%
20:00 +25°C° 0 mm 3 mps 759 mmHg 49%
21:00 +24°C° 0 mm 3 mps 759 mmHg 50%
22:00 +22°C° 0 mm 3 mps 759 mmHg 52%
23:00 +23°C° 0 mm 2 mps 759 mmHg 53%

Tomorrow, 29 November, Sunday

Time Temperature Precipitation Wind Pressure Humidity
00:00 +21°C° 0 mm 2 mps 759 mmHg 54%
01:00 +21°C° 0 mm 3 mps 759 mmHg 55%
02:00 +20°C° 0 mm 3 mps 759 mmHg 55%
03:00 +20°C° 0 mm 3 mps 758 mmHg 56%
04:00 +20°C° 0 mm 3 mps 759 mmHg 57%
05:00 +19°C° 0 mm 3 mps 759 mmHg 58%
06:00 +19°C° 0 mm 2 mps 759 mmHg 59%
07:00 +21°C° 0 mm 3 mps 760 mmHg 55%
08:00 +22°C° 0 mm 3 mps 760 mmHg 51%
09:00 +25°C° 0 mm 3 mps 761 mmHg 47%
10:00 +27°C° 0 mm 3 mps 760 mmHg 42%
11:00 +29°C° 0 mm 4 mps 760 mmHg 38%
12:00 +30°C° 0 mm 4 mps 759 mmHg 33%
13:00 +32°C° 0 mm 4 mps 759 mmHg 32%
14:00 +31°C° 0 mm 3 mps 758 mmHg 31%
15:00 +31°C° 0 mm 3 mps 757 mmHg 29%
16:00 +29°C° 0 mm 3 mps 757 mmHg 35%
17:00 +28°C° 0 mm 3 mps 757 mmHg 40%
18:00 +26°C° 0 mm 2 mps 757 mmHg 45%
19:00 +25°C° 0 mm 2 mps 758 mmHg 48%
20:00 +24°C° 0 mm 2 mps 758 mmHg 51%
21:00 +24°C° 0 mm 2 mps 758 mmHg 53%
22:00 +23°C° 0 mm 2 mps 758 mmHg 55%
23:00 +21°C° 0 mm 2 mps 758 mmHg 57%

Day after tomorrow, 30 November, Monday

Time Temperature Precipitation Wind Pressure Humidity
00:00 +21°C° 0 mm 2 mps 758 mmHg 59%
01:00 +21°C° 0 mm 2 mps 758 mmHg 61%
02:00 +20°C° 0 mm 2 mps 758 mmHg 63%
03:00 +20°C° 0 mm 2 mps 758 mmHg 65%
04:00 +19°C° 0 mm 2 mps 758 mmHg 68%
05:00 +19°C° 0 mm 2 mps 758 mmHg 70%
06:00 +19°C° 0 mm 2 mps 758 mmHg 72%
07:00 +20°C° 0 mm 2 mps 759 mmHg 67%
08:00 +23°C° 0 mm 2 mps 760 mmHg 61%
09:00 +25°C° 0 mm 3 mps 761 mmHg 56%
10:00 +26°C° 0 mm 2 mps 760 mmHg 50%
11:00 +28°C° 0 mm 2 mps 760 mmHg 44%
12:00 +29°C° 0 mm 2 mps 759 mmHg 38%
13:00 +30°C° 0 mm 1 mps 758 mmHg 35%
14:00 +30°C° 0 mm 1 mps 758 mmHg 32%
15:00 +31°C° 0 mm 1 mps 757 mmHg 29%
16:00 +29°C° 0 mm 1 mps 757 mmHg 33%
17:00 +27°C° 0 mm 1 mps 757 mmHg 38%
18:00 +26°C° 0 mm 1 mps 757 mmHg 42%
19:00 +25°C° 0 mm 1 mps 758 mmHg 44%
20:00 +24°C° 0 mm 1 mps 758 mmHg 47%
21:00 +24°C° 0 mm 1 mps 759 mmHg 49%
22:00 +23°C° 0 mm 1 mps 759 mmHg 50%
23:00 +23°C° 0 mm 1 mps 759 mmHg 51%

1 December, Tuesday

Time Temperature Precipitation Wind Pressure Humidity
00:00 +22°C° 0 mm 1 mps 759 mmHg 52%
01:00 +21°C° 0 mm 2 mps 759 mmHg 55%
02:00 +20°C° 0 mm 2 mps 758 mmHg 57%
03:00 +20°C° 0 mm 2 mps 758 mmHg 59%
04:00 +20°C° 0 mm 2 mps 759 mmHg 61%
05:00 +20°C° 0 mm 1 mps 759 mmHg 64%
06:00 +20°C° 0 mm 1 mps 759 mmHg 66%
07:00 +22°C° 0 mm 1 mps 760 mmHg 62%
08:00 +23°C° 0 mm 1 mps 760 mmHg 57%
09:00 +25°C° 0 mm 2 mps 761 mmHg 53%
10:00 +27°C° 0 mm 1 mps 761 mmHg 47%
11:00 +28°C° 0 mm 1 mps 760 mmHg 42%
12:00 +30°C° 0 mm 1 mps 760 mmHg 36%
13:00 +30°C° 0 mm 1 mps 759 mmHg 34%
14:00 +30°C° 0 mm 1 mps 758 mmHg 32%
15:00 +31°C° 0 mm 1 mps 757 mmHg 30%
16:00 +29°C° 0 mm 1 mps 757 mmHg 35%
17:00 +27°C° 0 mm 1 mps 757 mmHg 39%
18:00 +26°C° 0 mm 1 mps 757 mmHg 44%
19:00 +25°C° 0 mm 1 mps 757 mmHg 46%
20:00 +25°C° 0 mm 1 mps 758 mmHg 49%
21:00 +24°C° 0 mm 1 mps 758 mmHg 51%
22:00 +24°C° 0 mm 1 mps 758 mmHg 52%
23:00 +23°C° 0 mm 1 mps 758 mmHg 53%

2 December, Wednesday

Time Temperature Precipitation Wind Pressure Humidity
00:00 +23°C° 0 mm 1 mps 758 mmHg 54%
01:00 +22°C° 0 mm 1 mps 758 mmHg 56%
02:00 +22°C° 0 mm 1 mps 758 mmHg 58%
03:00 +22°C° 0 mm 1 mps 757 mmHg 59%
04:00 +21°C° 0 mm 1 mps 758 mmHg 62%
05:00 +21°C° 0 mm 1 mps 758 mmHg 64%
06:00 +21°C° 0 mm 1 mps 758 mmHg 66%
07:00 +22°C° 0 mm 1 mps 758 mmHg 61%
08:00 +24°C° 0 mm 1 mps 759 mmHg 56%
09:00 +26°C° 0 mm 1 mps 760 mmHg 51%
10:00 +27°C° 0 mm 1 mps 759 mmHg 47%
11:00 +28°C° 0 mm 1 mps 759 mmHg 42%
12:00 +30°C° 0 mm 2 mps 758 mmHg 38%
13:00 +30°C° 0 mm 2 mps 757 mmHg 36%
14:00 +30°C° 0 mm 2 mps 757 mmHg 34%
15:00 +31°C° 0 mm 2 mps 756 mmHg 32%
16:00 +29°C° 0 mm 2 mps 756 mmHg 36%
17:00 +27°C° 0 mm 2 mps 755 mmHg 40%
18:00 +26°C° 0 mm 2 mps 755 mmHg 45%
19:00 +25°C° 0 mm 1 mps 756 mmHg 48%
20:00 +24°C° 0 mm 1 mps 756 mmHg 51%
21:00 +24°C° 0 mm 1 mps 757 mmHg 54%
22:00 +23°C° 0 mm 1 mps 757 mmHg 55%
23:00 +23°C° 0 mm 1 mps 757 mmHg 56%

3 December, Thursday

Time Temperature Precipitation Wind Pressure Humidity
00:00 +21°C° 0 mm 0 mps 757 mmHg 57%
01:00 +22°C° 0 mm 1 mps 756 mmHg 58%
02:00 +22°C° 0 mm 1 mps 756 mmHg 59%
03:00 +22°C° 0 mm 1 mps 756 mmHg 60%
04:00 +21°C° 0 mm 1 mps 756 mmHg 61%
05:00 +21°C° 0 mm 1 mps 757 mmHg 63%
06:00 +21°C° 0 mm 1 mps 757 mmHg 64%
07:00 +22°C° 0 mm 1 mps 758 mmHg 59%
08:00 +24°C° 0 mm 1 mps 758 mmHg 54%
09:00 +26°C° 0 mm 1 mps 759 mmHg 48%
10:00 +27°C° 0 mm 1 mps 758 mmHg 44%
11:00 +29°C° 0 mm 1 mps 758 mmHg 39%
12:00 +30°C° 0 mm 1 mps 758 mmHg 35%
13:00 +30°C° 0 mm 1 mps 757 mmHg 33%
14:00 +31°C° 0 mm 1 mps 756 mmHg 31%
15:00 +31°C° 0 mm 1 mps 756 mmHg 29%
16:00 +29°C° 0 mm 1 mps 756 mmHg 33%
17:00 +28°C° 0 mm 1 mps 756 mmHg 36%
18:00 +26°C° 0 mm 1 mps 756 mmHg 40%
19:00 +25°C° 0 mm 1 mps 756 mmHg 43%
20:00 +24°C° 0 mm 1 mps 757 mmHg 47%
21:00 +24°C° 0 mm 1 mps 757 mmHg 50%
22:00 +23°C° 0 mm 1 mps 757 mmHg 51%
23:00 +23°C° 0 mm 2 mps 757 mmHg 52%
Show more

We Need Your Consent

Meteoprog and our Service Providers may store and access personal data such as cookies, device identifiers or other similar technologies on your device and process such data to personalise content and ads, as well as provide social media features and to analyse the traffic.

  • Store and/or access information on your device

    Cookies, device identifiers or other information can be stored or accessed on your device for the purposes indicated above.

  • Personalised ads and content, ad and content measurement, audience insights, and products development

    Ads and content can be personalised based on a profile. More data can be added to better personalise ads and content. Ad and content performance can be measured. Insights about the audience who saw the ads and content can be derived. Such data can be used to develop or improve user’s experience, systems and software.

By clicking ‘I Agree’ you will allow the use of indicated cookies, device identifiers, web beacons or other similar technologies. Your settings can be changed in the browser on your device.

For certain purposes, legitimate interests may be relied on, rather than consent. You can read more about this in our Privacy and Cookie Policy.